Regional Weather Roundup
Issued by NWS Wakefield, VA

Home | Current Version | Previous Version | Graphics & Text | Print | Product List | Glossary On
Versions: 1 2 3 4 5 6 7 8 9 10 11 12 13 14 15 16 17 18 19 20 21 22 23 24 25 26 27 28 29 30 31 32 33 34 35 36 37 38 39 40 41 42 43 44 45 46 47 48 49 50
614
ASUS41 KAKQ 051915
RWRAKQ

REGIONAL WEATHER ROUNDUP
NATIONAL WEATHER SERVICE WAKEFIELD VA
200 PM EST MON DEC 05 2016

Note: "fair" indicates few or no clouds below 12,000 feet with no
significant weather and/or obstructions to visibility. * = Denotes
station may not report precipitation (e.g., rain,snow,etc.),
thunder or fog.

VAZ042-051-052>054-056-052000-
NORTHERN VIRGINIA

CITY           SKY/WX    TMP DP  RH WIND       PRES   REMARKS
WASH NATIONAL  PTSUNNY   56  37  49 N12       30.03R
DULLES         PTSUNNY   55  35  47 NW12      30.01S
FORT BELVOIR   SUNNY     57  34  42 NW8       30.01F
QUANTICO       MOSUNNY   47  43  86 S6        30.04S
FREDERICKSBRG* SUNNY     51  44  75 NW3       30.02S
STAFFORD*      SUNNY     53  42  65 N5        30.06S
WARRENTON      SUNNY     55  39  53 CALM      30.01F
CULPEPER*      SUNNY     54  43  67 CALM      30.03S
MANASSAS*      MOSUNNY   54  43  66 CALM      30.02S
LEESBURG*      SUNNY     54  37  54 NW8       30.02S
WINCHESTER     SUNNY     52  32  46 NW9       30.01S
FRONT ROYAL*   FAIR      54  32  43 N6        29.99F
LURAY*         FAIR      55  36  47 CALM      29.99S
$$

VAZ048-049-060>072-079>083-052000-
CENTRAL AND SOUTH CENTRAL VIRGINIA

CITY           SKY/WX    TMP DP  RH WIND       PRES   REMARKS
RICHMOND       PTSUNNY   50  42  74 NW5       30.03S
CHESTERFIELD*  FAIR      52  30  43 NE6       30.04F
PETERSBURG*    SUNNY     52  42  69 N5        30.03S
HANOVER        MOSUNNY   50  42  74 CALM      30.05S
TAPPAHANNOCK*  SUNNY     52  39  61 N9        30.04R
QUINTON*       FAIR      49  43  79 NW7       30.03S
CHARLOTTSVILLE SUNNY     57  38  48 SW5       30.00F
GORDONSVILLE*  FAIR      56  38  50 W5        30.00F
ORANGE*          N/A     54  43  66 CALM      30.03S
LOUISA*        SUNNY     54  46  76 CALM      30.01S
BUMPASS*       FAIR      49  43  78 CALM      30.03S
FARMVILLE*     SUNNY     59  43  55 N6        30.00F
CREWE*         FAIR      55  43  65 CALM      30.01F
FORT PICKETT*  FAIR      54  38  53 N8        30.02S
CHASE CITY*    FAIR      55  41  59 N3        30.01F
CLARKSVILLE*   FAIR      54  43  66 N7        30.01F
SOUTH HILL*    SUNNY     55  45  67 N7        30.06F
LAWRENCEVILLE* FAIR      56  42  61 NE5       30.01S
EMPORIA*       SUNNY     54  43  66 NW6       30.03S
$$

VAZ088>098-052000-
SOUTHEAST VIRGINIA

CITY           SKY/WX    TMP DP  RH WIND       PRES   REMARKS
NORFOLK        MOSUNNY   51  45  79 N6        30.01R
VIRGINIA BEACH PTSUNNY   51  45  79 N12       30.00S
NORFOLK NAVAL  MOSUNNY   54  46  74 N8        30.03R
WEST POINT*    SUNNY     52  44  73 NW5       30.04F
SALUDA*        FAIR      48  44  88 NW6       30.02S
NEWPORT NEWS   SUNNY     55  44  66 N9        30.02R
LANGLEY AFB    MOSUNNY   54  44  69 N13       30.00S
FORT EUSTIS    SUNNY     56  42  61 N10       29.99S
WILLIAMSBURG*  SUNNY     57  45  62 N7        30.03S
HR EXEC AP*    FAIR      54  45  71 N6        30.00S
FRANKLIN*      PTSUNNY   53  44  74 N3        30.03R
US460-WAKEFLD  SUNNY     52  44  74 N8        30.02S
$$

VAZ020-022-025-037-045-052000-
WEST CENTRAL AND SOUTHWEST VIRGINIA

CITY           SKY/WX    TMP DP  RH WIND       PRES   REMARKS
STAUNTON*      SUNNY     53  32  45 W3        30.03S
WAYNESBORO*    FAIR      55  33  43 NW6       30.00S
HOT SPRINGS VA NOT AVBL
LYNCHBURG      SUNNY     57  41  55 CALM      30.00F
DANVILLE       MOSUNNY   55  46  71 VRB6      30.01F
SOUTH BOSTON*  FAIR      56  42  60 NW5       30.02F
MARTINSVILLE   SUNNY     59  38  45 W3        30.02S
ROANOKE        SUNNY     58  34  40 N7        30.01F
BLACKSBURG     CLOUDY    53  37  53 NW5       30.01F
DUBLIN*        SUNNY     53  38  58 N6        30.01F
MARION*        SUNNY     52  38  57 W6        30.02F
HILLSVILLE*    SUNNY     49  37  63 CALM      29.98S
RICHLANDS*     FAIR      47  17  30 CALM      30.00F
WISE*          MOSUNNY   46  37  71 CALM      30.00F
ABINGDON*      MOSUNNY   52  39  61 N3        29.99F
$$

MDZ021>025-VAZ099-100-052000-
SOUTHERN MARYLAND AND THE DELMARVA PENINSULA

CITY           SKY/WX    TMP DP  RH WIND       PRES   REMARKS
PATUXENT RIVER MOSUNNY   51  42  71 CALM      30.02R
BAY BRIDGE APT SUNNY     50  41  71 N6        30.02S
LEONARDTOWN    SUNNY     52  39  62 N7        30.03R
DOVER          MOSUNNY   52  43  71 NW9       30.00S
GEORGETOWN     PTSUNNY   53  41  63 N8G17     30.00S
EASTON         PTSUNNY   50  41  71 N7        30.05S
CAMBRIDGE      SUNNY     48  41  76 NW8       30.02R
SALISBURY      MOSUNNY   53  41  63 NW10      30.00R
OCEAN CITY     PTSUNNY   53  43  68 N9G18     30.00S
WALLOPS ISLAND PTSUNNY   53  43  68 N12       30.01R
ACCOMACK*      CLOUDY    47  44  87 N12       30.01S
$$

NCZ012>017-030>032-052000-
NORTH CENTRAL AND EASTERN NORTH CAROLINA

CITY           SKY/WX    TMP DP  RH WIND       PRES   REMARKS
ROANOKE RAPIDS FAIR      57  45  62 N10       30.01S
RALEIGH        MOSUNNY   58  42  55 NE8       30.00F
ELIZABETH CITY SUNNY     57  47  69 N14       29.99S
AHOSKIE*       SUNNY     54  45  72 N10       30.01S
EDENTON*       PTSUNNY   57  49  74 N10       29.99F
CURRITUCK*     SUNNY     56  46  69 N13       30.00R
KILL DEVIL HLS PTSUNNY   53  52  95 N7        29.97R
MANTEO         CLOUDY    54  50  85 N12       29.98S
CAPE HATTERAS  CLOUDY    54  51  90 N8        29.97R
TARBORO*       NOT AVBL
GOLDSBORO      MOSUNNY   60  46  61 VRB7      29.97S
WASHINGTON     CLOUDY    57  47  69 N9        29.98F
GREENVILLE     SUNNY     55  46  71 N6        30.00F
NEW BERN       MOSUNNY   59  49  69 N10       29.98S
WILMINGTON     CLOUDY    59  51  75 N13       29.96F
$$

VAZ048-052000-
ELSEWHERE

CITY           SKY/WX    TMP DP  RH WIND       PRES   REMARKS
HARRISBURG PA  MOSUNNY   49  39  68 NW6       30.00S
BALTIMORE      PTSUNNY   54  36  50 NW9       30.01R
ANNAPOLIS      SUNNY     55  38  52 NW9       30.01R
ANDREWS AFB    SUNNY     54  35  49 NW14      30.01R
PHILADELPHIA   PTSUNNY   50  36  58 W13       30.01R
HENDERSON NC   SUNNY     53  39  59 N8        30.01F
GREENSBORO     PTSUNNY   58  44  60 N6        29.99F
ROCKY MOUNT    SUNNY     59  45  59 N12       29.99F
$$

VAZ100-052000-
MARINE

STATION/POSITION TIME  TEMP    WIND        PRES    WAVE   SWELL
                       AIR SEA DIR/SP/G            HT/PER HT/PER
                 (UTC) (F)     (DEG/KT/KT) (MB)    (FT/S) (FT/S)
BRANDYWINE LGT   1842   46     340/  8/ 10   N/A
CAPE MAY NJ      1842   47 48  320/  4/ 10 1015.7R
LEWES DE         1842   47 49   10/ 10/ 12 1015.9S
OCEAN-CITY-INLET 1848   49 50   10/ 10/ 12 1016.1F
WACHAPREAGUE VA  1848   47 49  320/  6/ 12 1016.1R
THOMAS POINT MD  1900   49 49   80/  3/  4   N/A
GOOSES REEF MD   1900   47 50  100/  4/  6 1017.2    1
COVE POINT MD    1848   46      CALM  /  4 1017.1R
SOLOMONS ISLAND  1842   48 51   80/  3/  7   N/A
BISHOPS HEAD MD  1848   47 47  290/  3/  8 1016.8R
PINEY POINT MD   1848          310/  7/  8   N/A
POTOMAC MD       1900   48 51  350/  4/  6 1015.9    1/ 2
CAMBRIDGE MD     1848   48 47  320/  4/  6 1015.7R
LEWISETTA VA     1848   51 49  340/  3/  5 1016.3R
RAPPAHANNOCK LGT 1848          360/ 12/ 14 1017.1R
STINGRAY PT      1900   48     320/  8/ 10 1016.7    1/ 2
YORK RVR RNG VA  1848   51     350/ 10/ 12 1015.9R
YORKTOWN VA      1848   48 52  300/ 10/ 13 1016.0R
JAMESTOWN VA     1900   49 53  280/  8/ 10   N/A     0
DOMINION TERM VA 1848   51     320/  8/ 11 1016.3R
KIPTOPEKE VA     1848      52  350/ 14/ 17   N/A
CHES BAY BRIDGE  1836   48 54  350/ 12/ 13 1016.0R
CAPE HENRY VA    1836   47     340/ 13/ 15   N/A
WILLOUBY STN VA  1836   49      40/  5/  6 1017.1R
S CRANEY ISL VA  1836   50      10/  9/ 10 1016.1R
CAPE HENRY BUOY  1842      56                N/A     3/ 3
1ST LANDING BUOY 1900   49 54              1016.3    2/ 3
CAPE CHARLES BUO 1826      55                N/A     3/ 9
OFFSHORE WE BUOY 1851      56                N/A     4/ 4
64NM E OF VA BCH 1850   55 60  350/ 21/ 25 1013.5F   5/ 5
DUCK PIER NC     1836   52 54   20/ 21/ 22 1014.2F
44100 DUCK FRF   1835      56                N/A     5/ 5
OREGON INLET NC  1836   53 56  340/ 14/ 19 1014.7R
HATTERAS NC      1836   53 60   10/ 14/ 16 1014.2R
DIAMOND SHLS NC  1850   57 72  360/ 17/ 21 1014.0S   6/ 8   3/ 8
CAPE LOOKOUT NC  1800   56      10/  9/ 12 1013.9F
$$




USA.gov is the U.S. government's official web portal to all federal, state and local government web resources and services.